This is the latest recevied weather packets stored in our database for station/object K5WNG. If no packets are shown the sender has not sent any weather packets the latest 10 day(s).
| Time | Temp. | Humidity | Pressure | Rain* | Wind** | Luminosity | Snow |
|---|---|---|---|---|---|---|---|
| 1777573218 | 17.78° C | 98% | 1012.7 hPa | 0 mm | - | 26 W/m² | - |
| 1777572921 | 17.78° C | 97% | 1012.4 hPa | 0 mm | - | 49 W/m² | - |
| 1777572618 | 17.78° C | 97% | 1012.1 hPa | 0 mm | - | 66 W/m² | - |
| 1777572317 | 17.78° C | 97% | 1012.1 hPa | 0 mm | - | 83 W/m² | - |
| 1777572018 | 17.78° C | 97% | 1012.2 hPa | 0 mm | - | 95 W/m² | - |
| 1777571721 | 17.78° C | 97% | 1012.2 hPa | 0 mm | - | 95 W/m² | - |
| 1777571419 | 18.33° C | 97% | 1012.3 hPa | 0 mm | - | 141 W/m² | - |
| 1777571118 | 18.33° C | 96% | 1012.3 hPa | 0 mm | - | 242 W/m² | - |
| 1777570818 | 18.33° C | 97% | 1012.4 hPa | 0.25 mm | - | 208 W/m² | - |
| 1777570521 | 18.33° C | 97% | 1012.3 hPa | 1.27 mm | - | 182 W/m² | - |
| 1777570219 | 18.33° C | 97% | 1012.2 hPa | 3.3 mm | - | 253 W/m² | - |
| 1777569921 | 17.78° C | 97% | 1012.3 hPa | 6.6 mm | - | 316 W/m² | - |
| 1777569615 | 17.78° C | 97% | 1012.6 hPa | 8.89 mm | - | 352 W/m² | - |
| 1777569319 | 17.78° C | 97% | 1012.8 hPa | 11.94 mm | - | 226 W/m² | - |
| 1777569021 | 17.78° C | 97% | 1012.9 hPa | 12.95 mm | - | 184 W/m² | - |
| 1777568719 | 18.33° C | 97% | 1013.2 hPa | 13.72 mm | - | 156 W/m² | - |
| 1777568419 | 18.33° C | 97% | 1013.2 hPa | 14.22 mm | - | 140 W/m² | - |
| 1777568119 | 18.33° C | 98% | 1013.1 hPa | 14.22 mm | - | 328 W/m² | - |
| 1777567819 | 17.78° C | 99% | 1013.1 hPa | 14.22 mm | - | 640 W/m² | - |
| 1777567523 | 17.22° C | 99% | 1013.2 hPa | 14.22 mm | - | 481 W/m² | - |
| 1777567219 | 17.22° C | 99% | 1013.1 hPa | 13.97 mm | - | 239 W/m² | - |
| 1777566922 | 17.22° C | 98% | 1013.7 hPa | 12.95 mm | - | 156 W/m² | - |
| 1777566622 | 17.22° C | 98% | 1014.3 hPa | 10.92 mm | - | 87 W/m² | - |
| 1777566319 | 17.22° C | 97% | 1014.8 hPa | 7.62 mm | - | 22 W/m² | - |
| 1777566023 | 17.78° C | 96% | 1014.6 hPa | 5.33 mm | - | 16 W/m² | - |
* Rain latest hour (hover to see other rain measurements)
** Current wind speed in m/s (hover to see current wind gust speed)